Flag for U.S.A. Weather past 2 weeks in Springfield, Missouri, U.S.A.

Now
51 °F

Clear.


Feels Like: 47 °F
Forecast: 45 / 62 °F
Wind: 12 mph from East

Location: Springfield Regional Airport

Current Time: Apr 27, 2015 at 2:17:50 AM

Latest Report: Apr 27, 2015 at 12:52 AM


Visibility: 10 mi

Pressure: 29.96 "Hg

Humidity: 59%

Dew point: 37 °F

Location of SpringfieldLocation

Historic Weather in Springfield — Graph

°F

Springfield temperature yesterday

Maximum temperature yesterday: 56 °F (at 12:52 AM)
Minimum temperature yesterday: 50 °F (at 9:52 PM)
Average temperature yesterday: 53 °F

Past Weeks' High & Low Weather Summary

 TemperatureHumidityPressure
High77 °F (Apr 12, 3:52 PM)100% (Apr 19, 1:52 AM)30.18 "Hg (Apr 19, 1:52 AM)
Low42 °F (Apr 20, 10:52 PM)28% (Apr 23, 4:52 PM)29.48 "Hg (Apr 25, 7:52 AM)
Average58 °F66%29.91 "Hg
* Reported Apr 12 12:52 AM — Apr 27 12:52 AM, Springfield, Weather by CustomWeather, © 2015

Note: Actual official high and low records may vary slightly from our data, if they occured in-between our weather recording intervals... More about our weather records

Advertising

Springfield weather history for previous 24 hours

 ConditionsComfort  
Time TempWeatherWind HumidityBarometerVisibility
12:52 AM
Mon, Apr 27
51 °FClear.12 mph59%29.96 "Hg10 mi
11:52 PM
Sun, Apr 26
52 °FClear.13 mph59%29.94 "Hg10 mi
10:52 PM52 °FClear.9 mph72%29.94 "Hg10 mi
9:52 PM50 °FClear.3 mph80%29.93 "Hg10 mi
8:52 PM52 °FSunny.5 mph77%29.90 "Hg10 mi
7:52 PM54 °FSunny.3 mph72%29.90 "Hg10 mi
6:52 PM55 °FPassing clouds.9 mph69%29.89 "Hg10 mi
5:52 PM55 °FOvercast.9 mph69%29.88 "Hg10 mi
4:52 PM53 °FOvercast.13 mph72%29.89 "Hg10 mi
3:52 PM53 °FOvercast.12 mph72%29.89 "Hg10 mi
2:52 PM53 °FOvercast.15 mph74%29.90 "Hg10 mi
1:52 PM53 °FOvercast.9 mph74%29.90 "Hg10 mi
12:52 PM52 °FOvercast.14 mph77%29.90 "Hg10 mi
11:52 AM54 °FOvercast.15 mph72%29.89 "Hg10 mi
10:52 AM54 °FMostly cloudy.13 mph77%29.88 "Hg10 mi
9:52 AM54 °FMostly cloudy.15 mph77%29.87 "Hg10 mi
8:52 AM52 °FLow clouds.12 mph83%29.86 "Hg10 mi
7:52 AM51 °FLow clouds.13 mph89%29.84 "Hg10 mi
6:52 AM51 °FLow clouds.14 mph89%29.82 "Hg10 mi
5:52 AM52 °FLow clouds.13 mph89%29.78 "Hg10 mi
4:52 AM52 °FLow clouds.13 mph89%29.76 "Hg8 mi
3:52 AM53 °FFog.9 mph93%29.75 "Hg6 mi
2:52 AM54 °FLow clouds.10 mph90%29.73 "Hg10 mi
Weather by CustomWeather, © 2015

See weather overviewHow to use our weather pages